Location: 22
(39.7117°N, 89.5929°W)
Time: 06:08:03
(UTC-05:00)

ISS - Pass Details

Date: 29 September 2021
Orbit: 417 x 423 km, 51.6° (Epoch: 16 October)

Event Time Altitude Azimuth Distance (km) Brightness Sun altitude
Rises 19:22:26 0° 312° (NW) 2,363 1.0 -8.3°
Reaches altitude 10° 19:25:35 10° 344° (NNW) 1,500 -0.7 -8.9°
Maximum altitude 19:27:03 12° 10° (N) 1,368 -1.2 -9.2°
Drops below altitude 10° 19:28:32 10° 36° (NE) 1,500 -1.3 -9.5°
Enters shadow 19:29:36 - 50° (NE) 1,734 -1.1 -9.7°
